User: anonymous   Login
Location: Unspecified
(0.0000°N, 0.0000°E)
Time: 02:57:44
(UTC+01:00)
Language:

Cosmos 1263 Rocket - Orbit

View from above orbital plane
View from above orbital plane
View from above satellite
View from above satellite

Ground track
Ground track

The orbit data is extracted from the following two-line orbital elements,

1 12389U 81033B   15084.99865172  .00155455  55630-5  10098-2 0  9992
2 12389 082.8640 190.3038 0114431 162.5690 249.4085 15.67121551753269
Epoch (UTC): 25 March 2015 23:58:03
Eccentricity: 0.0114431
inclination: 82.8640°
perigee height: 290 km
apogee height: 444 km
right ascension of ascending node: 190.3038°
argument of perigee: 162.5690°
revolutions per day: 15.67121551
mean anomaly at epoch: 249.4085°
orbit number at epoch: 75326

The dashed part of the orbit path shows where the satellite is in the earth's shadow,  

DLR